Location: Joplin
(37.0842°N, 94.5131°W)
Time: 16:38:20
(UTC-05:00)

STRAND 1 - Visible Passes

Search period start: 24 May 2019 00:00
Search period end: 03 June 2019 00:00
Orbit: 768 x 781 km, 98.5° (Epoch: 23 May)

Date Brightness Start Highest point End Pass type
(mag) Time Alt. Az. Time Alt. Az. Time Alt. Az.
24 May ? 22:05:08 10° NNW 22:08:47 20° WNW 22:12:27 10° WSW visible
25 May ? 21:30:18 10° N 21:35:06 41° WNW 21:39:54 10° SW visible
26 May ? 20:56:04 10° NNE 21:01:15 88° WNW 21:06:24 10° SSW visible
27 May ? 22:02:16 10° NNW 22:06:04 21° WNW 22:09:52 10° WSW visible
28 May ? 21:27:30 10° N 21:32:22 43° WNW 21:37:13 10° SW visible
29 May ? 20:53:19 10° NNE 20:58:30 87° ESE 21:03:39 10° SSW visible
29 May ? 22:35:46 10° NW 22:36:53 11° WNW 22:37:59 10° WNW visible
30 May ? 21:59:25 10° NNW 22:03:21 22° WNW 22:07:16 10° WSW visible
31 May ? 21:24:43 10° N 21:29:38 46° WNW 21:34:32 10° SW visible
01 Jun ? 22:32:34 10° NW 22:34:11 11° WNW 22:35:47 10° W visible
02 Jun ? 21:56:35 10° NNW 22:00:38 24° WNW 22:04:39 10° WSW visible
